Regional Weather Roundup
Issued by NWS

Home | Current Version | Previous Version | Graphics & Text | Print | Product List | Glossary On
Versions: 1 2 3 4 5 6 7 8 9 10 11 12 13 14 15 16 17 18 19 20 21 22 23 24 25 26 27 28 29 30 31 32 33 34 35 36 37 38 39 40 41 42 43 44 45 46 47 48 49 50
000
ASUS43 KFSD 240410
RWRSD

WEATHER ROUNDUP FOR SOUTH DAKOTA
NATIONAL WEATHER SERVICE SIOUX FALLS SD
1100 PM CDT THU OCT 23 2014

NOTE: "FAIR" INDICATES FEW OR NO CLOUDS BELOW 12,000 FEET WITH NO
SIGNIFICANT WEATHER AND/OR OBSTRUCTIONS TO VISIBILITY.


SDZ001>005-009-010-012>017-240500-
NORTHWEST AND NORTH CENTRAL SOUTH DAKOTA

CITY           SKY/WX    TMP DP  RH WIND       PRES   REMARKS
BUFFALO          N/A     51  28  41 W6        29.82S
FAITH            N/A     50  31  48 SW7       29.87F
MOBRIDGE       CLOUDY    49  40  71 SE3       29.83F
$$

SDZ012>016-024>037-041>051-057-063-072>074-240500-
SOUTHWEST AND SOUTH CENTRAL SOUTH DAKOTA

CITY           SKY/WX    TMP DP  RH WIND       PRES   REMARKS
RAPID CTY ARPT PTCLDY    47  36  65 W6        29.93R
PIERRE         MOCLDY    50  35  56 NE3       29.84F
CUSTER         MOCLDY    41  26  55 NW3       30.02S
ELLSWORTH AFB  PTCLDY    49  35  58 W3        29.92S
PHILIP         MOCLDY    42  32  67 NW5       29.89R
PINE RIDGE     PTCLDY    37  33  85 CALM      29.95R
SPEARFISH      FAIR      48  32  53 SW9       29.95S
WINNER         FAIR      60  35  39 SW10      29.87S
$$

SDZ004>011-016>023-039-040-240500-
NORTHEAST SOUTH DAKOTA

CITY           SKY/WX    TMP DP  RH WIND       PRES   REMARKS
ABERDEEN       MOCLDY    46  42  86 S6        29.86S
WATERTOWN      CLOUDY    49  43  80 S7        29.89F
SISSETON         N/A     50  43  77 S6        29.86F
$$

SDZ017-020-022-023-036>040-048>070-240500-
SOUTHEAST SOUTH DAKOTA

CITY           SKY/WX    TMP DP  RH WIND       PRES   REMARKS
SIOUX FALLS    MOCLDY    58  46  64 S10       29.93F
HURON          PTCLDY    53  45  74 S8        29.86S
CHAMBERLAIN    PTCLDY    46  40  79 CALM      29.85F
MITCHELL       MOCLDY    56  49  77 S9        29.88S
YANKTON        MOCLDY    57  50  77 S7        29.93S
$$

ABBREVIATIONS USED IN REMARKS
   TC - TEMPERATURE IN CELSIUS
  WCI - WIND CHILL INDEX
   HX - HEAT INDEX
  VSB - VISIBILITY




USA.gov is the U.S. government's official web portal to all federal, state and local government web resources and services.